Tracking 19484 objects as of 20-Jan-2019
HD Live streaming from Space Station
objects crossing your sky now

MOLNIYA 3-8

Track MOLNIYA 3-8 now!
MOLNIYA 3-8 is classified as:


NORAD ID: 10455
Int'l Code: 1977-105A
Perigee: 1,182.5 km
Apogee: 39,168.1 km
Inclination: 62.2 °
Period: 717.4 minutes
Semi major axis: 26546 km
RCS: 13.5006 m2 (large)
Launch date: October 28, 1977
Source: Commonwealth of Independent States (former USSR) (CIS)
Launch site: PLESETSK MISSILE AND SPACE COMPLEX (PKMTR)
aabbcc
Your satellite tracking list
Your tracking list is empty




NASA's NSSDC Master Catalog

Two Line Element Set (TLE):
1 10455U 77105A   19019.42379386 -.00000893  00000-0 -43699-2 0  9992
2 10455  62.1829 181.8985 7154584 272.8001  14.7677  2.00722914302092
Source of the keplerian elements: AFSPC